Location: Caltech
(34.1382°N, 118.1253°W)
Time: 10:30:25
(UTC-07:00)

AO-Echo - Visible Passes

Search period start: 05 July 2015 00:00
Search period end: 15 July 2015 00:00
Orbit: 695 x 811 km, 98.3° (Epoch: 04 July)

Date Brightness Start Highest point End Pass type
(mag) Time Alt. Az. Time Alt. Az. Time Alt. Az.
05 Jul ? 02:08:02 10° NNE 02:12:31 38° E 02:12:31 38° E visible
05 Jul ? 03:47:28 10° NNW 03:51:27 22° WNW 03:52:28 20° W visible
06 Jul ? 01:29:22 10° ENE 01:31:41 15° E 01:31:41 15° E visible
06 Jul ? 03:06:17 10° N 03:11:24 52° WNW 03:11:37 52° W visible
07 Jul ? 02:25:56 10° NNE 02:30:46 59° E 02:30:46 59° E visible
07 Jul ? 04:06:33 10° NNW 04:09:23 14° WNW 04:10:42 13° W visible
08 Jul ? 01:46:30 10° NE 01:49:55 23° E 01:49:55 23° E visible
08 Jul ? 03:24:41 10° N 03:29:25 34° WNW 03:29:51 34° W visible
09 Jul ? 02:43:59 10° NNE 02:49:00 82° N 02:49:00 82° N visible
10 Jul ? 02:04:06 10° NNE 02:08:08 34° E 02:08:08 34° E visible
10 Jul ? 03:43:18 10° NNW 03:47:23 23° WNW 03:48:05 22° W visible
11 Jul ? 01:25:43 10° ENE 01:27:17 13° E 01:27:17 13° E visible
11 Jul ? 03:02:12 10° N 03:07:13 57° WNW 03:07:13 57° WNW visible
12 Jul ? 02:21:55 10° NNE 02:26:21 51° ENE 02:26:21 51° ENE visible
12 Jul ? 04:02:17 10° NNW 04:05:19 15° WNW 04:06:18 14° W visible
13 Jul ? 01:42:38 10° NE 01:45:30 20° ENE 01:45:30 20° ENE visible
13 Jul ? 03:20:34 10° N 03:25:19 37° WNW 03:25:26 37° WNW visible
14 Jul ? 02:39:56 10° NNE 02:44:34 71° NNE 02:44:34 71° NNE visible
